Weather History for VIDP - June, 2013

Change the Weather History Date:

Saturday, June 15, 2013

  Actual Average Record
Temperature  
Mean Temperature 86 °F -  
Max Temperature 98 °F 96 °F 113 °F (2003)
Min Temperature 73 °F 80 °F 73 °F (2013)
Cooling Degree Days 20    
Growing Degree Days 36 (Base 50)    
Moisture  
Dew Point 74 °F    
Average Humidity 68    
Maximum Humidity 100    
Minimum Humidity 42    
Precipitation  
Precipitation 0.00 in - - ()
Sea Level Pressure  
Sea Level Pressure 29.51 in    
Wind  
Wind Speed 9 mph ()    
Max Wind Speed 17 mph    
Max Gust Speed 29 mph    
Visibility 2.0 miles    
Events Rain    
Averages and records for this station are not official NWS values.
T = Trace of Precipitation, MM = Missing Value Source: Averaged Metar Reports

Daily Weather History Graph

Daily Weather History Graph

Search for Another Location

Airport or City:

Trip Planner

Search our weather history database for the weather conditions in past years. The results will help you decide how hot, cold, wet, or windy it might be!

Date:

Astronomy

Jun. 15, 2013 Rise Set
Actual Time 5:23 AM IST 7:20 PM IST
Civil Twilight 4:56 AM IST 7:47 PM IST
Nautical Twilight 4:24 AM IST 8:20 PM IST
Astronomical Twilight 3:49 AM IST 8:54 PM IST
Moon 11:04 AM IST (6/15) 11:41 PM IST (6/15)
Length of Visible Light 14h 51m
Length of Day
13h 57m
Waxing Crescent, 35% of the Moon is Illuminated
Jun 15
Waxing Crescent
Jun 16
First Quarter
Jun 23
Full
Jun 30
Last Quarter
Jul 8
New

Hourly Weather History & Observations

Time (IST) Temp. Heat Index Dew Point Humidity Pressure Visibility Wind Dir Wind Speed Gust Speed Precip Events Conditions
12:00 AM 84.2 °F 94.1 °F 77.0 °F 79% 29.53 in 1.4 mi NE 4.6 mph - N/A   Mostly Cloudy
12:30 AM 84.2 °F 94.1 °F 77.0 °F 79% 29.53 in 1.4 mi NE 4.6 mph - N/A   Mostly Cloudy
1:00 AM 84.2 °F 94.1 °F 77.0 °F 79% 29.50 in 1.6 mi ENE 5.8 mph - N/A   Mostly Cloudy
1:30 AM 84.2 °F 90.9 °F 73.4 °F 70% 29.50 in 1.7 mi ENE 5.8 mph - N/A   Haze
2:30 AM 84.2 °F 90.9 °F 73.4 °F 70% 29.50 in - East 8.1 mph - N/A   Haze
3:00 AM 84.2 °F 90.9 °F 73.4 °F 70% 29.50 in 2.2 mi East 8.1 mph - N/A   Haze
3:30 AM 84.2 °F 90.9 °F 73.4 °F 70% 29.50 in 2.2 mi East 11.5 mph - N/A   Haze
4:00 AM 84.2 °F 90.9 °F 73.4 °F 70% 29.50 in 2.2 mi ESE 12.7 mph - N/A   Haze
4:30 AM 84.2 °F 90.9 °F 73.4 °F 70% 29.50 in 2.2 mi ESE 11.5 mph - N/A   Haze
5:00 AM 84.2 °F 90.9 °F 73.4 °F 70% 29.50 in 2.2 mi ESE 11.5 mph - N/A   Haze
5:30 AM 84.2 °F 92.3 °F 75.2 °F 74% 29.50 in 2.2 mi ESE 11.5 mph - N/A   Haze
6:00 AM 84.2 °F 90.9 °F 73.4 °F 70% 29.50 in 2.2 mi ESE 13.8 mph - N/A   Haze
6:30 AM 84.2 °F 90.9 °F 73.4 °F 70% 29.53 in 2.2 mi ESE 12.7 mph - N/A   Haze
7:00 AM 86.0 °F 93.4 °F 73.4 °F 66% 29.53 in 2.2 mi ESE 11.5 mph - N/A   Haze
7:30 AM 87.8 °F 95.6 °F 73.4 °F 62% 29.53 in 2.2 mi ESE 12.7 mph - N/A   Haze
8:00 AM 87.8 °F 95.6 °F 73.4 °F 62% 29.53 in 2.2 mi ESE 11.5 mph - N/A   Haze
8:30 AM 87.8 °F 95.6 °F 73.4 °F 62% 29.53 in 2.2 mi SE 13.8 mph - N/A   Haze
9:00 AM 87.8 °F 93.8 °F 71.6 °F 58% 29.53 in 2.2 mi ESE 13.8 mph - N/A   Haze
9:30 AM 89.6 °F 96.2 °F 71.6 °F 55% 29.53 in 2.2 mi SE 15.0 mph - N/A   Haze
10:00 AM 91.4 °F 100.1 °F 73.4 °F 55% 29.53 in 2.2 mi ESE 16.1 mph - N/A   Haze
10:30 AM 93.2 °F 100.5 °F 71.6 °F 49% 29.53 in 2.2 mi East 11.5 mph 23.0 mph N/A   Haze
11:00 AM 95.0 °F 103.2 °F 71.6 °F 47% 29.53 in 2.2 mi East 11.5 mph 23.0 mph N/A   Haze
11:30 AM 95.0 °F 103.2 °F 71.6 °F 47% 29.53 in 2.5 mi ESE 11.5 mph 23.0 mph N/A   Haze
12:00 PM 95.0 °F 103.2 °F 71.6 °F 47% 29.53 in 2.5 mi East 11.5 mph 23.0 mph N/A   Haze
12:30 PM 96.8 °F 105.1 °F 71.6 °F 44% 29.53 in 2.5 mi East 11.5 mph 23.0 mph N/A   Haze
1:00 PM 96.8 °F 105.1 °F 71.6 °F 44% 29.50 in 2.5 mi ESE 11.5 mph 23.0 mph N/A   Haze
1:30 PM 96.8 °F 105.1 °F 71.6 °F 44% 29.50 in 2.5 mi SE 13.8 mph 25.3 mph N/A   Haze
2:00 PM 96.8 °F 105.1 °F 71.6 °F 44% 29.47 in 2.5 mi ESE 9.2 mph 20.7 mph N/A   Haze
2:30 PM 98.6 °F 107.7 °F 71.6 °F 42% 29.47 in 2.2 mi East 9.2 mph 20.7 mph N/A   Haze
3:00 PM 96.8 °F 107.3 °F 73.4 °F 47% 29.47 in 2.2 mi East 9.2 mph 20.7 mph N/A   Haze
3:30 PM 96.8 °F 107.3 °F 73.4 °F 47% 29.47 in 2.2 mi East 9.2 mph 20.7 mph N/A   Haze
4:00 PM 96.8 °F 107.3 °F 73.4 °F 47% 29.47 in - ESE 17.3 mph 28.8 mph N/A   Light Drizzle
4:30 PM 89.6 °F 94.7 °F 69.8 °F 52% 29.50 in - ESE 9.2 mph 28.8 mph N/A   Haze
5:00 PM 91.4 °F 102.5 °F 75.2 °F 59% 29.50 in - East 11.5 mph - N/A   Haze
6:00 PM 91.4 °F 96.8 °F 69.8 °F 49% 29.47 in 1.6 mi ENE 11.5 mph - N/A   Haze
6:30 PM 82.4 °F 87.2 °F 71.6 °F 70% 29.50 in 1.6 mi NNW 17.3 mph 28.8 mph N/A   Haze
7:00 PM 78.8 °F - 75.2 °F 89% 29.50 in 1.5 mi NNE 13.8 mph - N/A   Overcast
7:30 PM 77.0 °F - 77.0 °F 100% 29.53 in 1.4 mi NNE 13.8 mph - N/A Rain Light Rain
8:00 PM 73.4 °F - 69.8 °F 88% 29.53 in 1.9 mi NE 17.3 mph - N/A Rain Light Rain
8:30 PM 77.0 °F - 77.0 °F 100% 29.50 in 1.9 mi NE 17.3 mph - N/A   Mostly Cloudy
9:00 PM 77.0 °F - 77.0 °F 100% 29.53 in 1.9 mi ENE 13.8 mph - N/A   Mostly Cloudy
9:30 PM 77.0 °F - 77.0 °F 100% 29.53 in 1.9 mi ENE 13.8 mph - N/A   Mostly Cloudy
10:00 PM 77.0 °F - 77.0 °F 100% 29.53 in 1.6 mi ENE 10.4 mph - N/A   Mostly Cloudy
10:30 PM 77.0 °F - 77.0 °F 100% 29.53 in 1.6 mi ENE 9.2 mph - N/A   Mostly Cloudy
11:00 PM 77.0 °F - 77.0 °F 100% 29.53 in 1.6 mi ENE 11.5 mph - N/A   Scattered Clouds
11:30 PM 77.0 °F - 77.0 °F 100% 29.53 in 1.6 mi ENE 9.2 mph - N/A   Scattered Clouds